Location: Tamazert
(32.6352°N, 5.2072°W)
Time: 05:02:23
(UTC+00:00)

Vanguard 2 Rocket - Pass Details

Date: 07 October 2022
Orbit: 555 x 3321 km, 32.9° (Epoch: 04 December)

Event Time Altitude Azimuth Distance (km) Brightness Sun altitude
Rises 02:23:22 0° 282° (WNW) 5,643 - -48.5°
Reaches altitude 10° 02:27:50 10° 281° (W) 4,175 - -47.7°
Maximum altitude 02:37:47 64° 203° (SSW) 1,261 - -45.9°
Drops below altitude 10° 02:43:26 10° 122° (ESE) 2,432 - -44.9°
Sets 02:45:25 0° 118° (ESE) 3,170 - -44.5°
